User: anonymous   Login
Location: Morlupo
(42.1333°N, 12.5000°E)
Time: 22:44:08
(UTC+00:00)
Language:

SL-16 R/B - Orbit

View from above orbital plane
View from above orbital plane
View from above satellite
View from above satellite

Ground track
Ground track

The orbit data is extracted from the following two-line orbital elements,

1 28353U 04021B   20328.13887295 -.00000263  00000-0 -11275-3 0  9998
2 28353  70.9999 326.5160 0002537  98.5730 261.5680 14.14234903849581
Epoch (UTC): 23 November 2020 03:19:58
Eccentricity: 0.0002537
inclination: 70.9999°
perigee height: 843 km
apogee height: 847 km
right ascension of ascending node: 326.5160°
argument of perigee: 98.5730°
revolutions per day: 14.14234903
mean anomaly at epoch: 261.5680°
orbit number at epoch: 84958

The dashed part of the orbit path shows where the satellite is in the earth's shadow,  

DLR